Location: Hilton Head Island
(32.2163°N, 80.7526°W)
Time: 09:08:23
(UTC-04:00)

Vanguard 1 - Pass Details

Date: 16 February 2026
Orbit: 653 x 3818 km, 34.2° (Epoch: 17 March)

Event Time Altitude Azimuth Distance (km) Brightness Sun altitude
Rises 23:26:34 0° 288° (WNW) 7,526 14.9 -64.1°
Reaches altitude 10° 23:32:05 10° 281° (W) 6,733 14.5 -64.9°
Enters shadow 23:44:59 31° 250° (WSW) 5,289 13.6 -66.5°
Maximum altitude 23:51:26 36° 225° (SW) 4,950 - -67.2°
Drops below altitude 10° 00:08:28 10° 166° (SSE) 5,871 - -68.7°
Sets 00:12:58 0° 158° (SSE) 6,498 - -69.0°
